Starlink 32658

operational
NORAD ID: 62999 Int'l Des: 2025-031 Owner: SPXS Country: US Constellation: starlink
LEOCIRCULAR

关于 Starlink 32658

正在加载描述...

实时位置

正在加载3D地球...

即将过境

高度历史

Altitude vs Time

uPlot chart will show altitude changes over time

两行轨道根数

1 62999U 25031U 26035.19073112 .00042132 00000-0 15312-2 0 9992
2 62999 43.0022 332.3767 0001448 275.4592 84.6095 15.27592915 55974
Epoch: Feb 4, 2026 • Age: 15 hours

当前状态

高度 483.2 km
速度 7.63 km/s
星下点 -3.40°S, 84.93°E
发射日期 Feb 11, 2025
运行时间 0.9 years
类型 internet

技术详情

分类 Payload
质量 730.00 kg
干质量 700.00 kg
总质量 730.00 kg
长度 0.30 m
直径 4.10 m
跨度 29.00 m
形状 Box + pan
制造商 SPXS
平台类型 Starlink V2M
阶段状态 In Orbit
所有者/国家 SPXS/US

大型星座

Loading constellations...